Home > Weather > Sarasota > Past weeks

Flag for USA Past Weather in Sarasota, Florida, USA — Yesterday and Last 2 Weeks

Now
80 °F

Clear.


Feels Like: 85 °F
Forecast: 79 / 91 °F
Wind: 5 mph from East

Location: Sarasota-Bradenton International Airport

Current Time: Aug 24, 2016 at 4:48:20 AM

Latest Report: Aug 24, 2016 at 3:53 AM


Visibility: 10 mi

Pressure: 30.07 "Hg

Humidity: 85%

Dew Point: 75 °F

Location of SarasotaLocation

Past Weather in Sarasota — Graph

°F

Sarasota Temperature Yesterday

Maximum temperature yesterday: 97 °F (at 1:53 PM)
Minimum temperature yesterday: 81 °F (at 4:53 AM)
Average temperature yesterday: 87 °F

High & Low Weather Summary for the Past Weeks

 TemperatureHumidityPressure
High97 °F (Aug 23, 1:53 PM)90% (Aug 10, 6:53 AM)30.15 "Hg (Aug 10, 6:53 AM)
Low76 °F (Aug 12, 5:53 AM)46% (Aug 23, 1:53 PM)29.93 "Hg (Aug 20, 5:53 PM)
Average84 °F74%30.04 "Hg
* Reported Aug 9 2:53 AM — Aug 24 2:53 AM, Sarasota, Weather by CustomWeather, © 2016

Note: Actual official high and low records may vary slightly from our data, if they occured in-between our weather recording intervals... More about our weather records

Advertising

Sarasota Weather History for the Previous 24 Hours

Scroll right to see more
 ConditionsComfort  
Time TempWeatherWind HumidityBarometerVisibility
2:53 AM
Wed, Aug 24
80 °FClear.6 mph81%30.08 "Hg10 mi
1:53 AM80 °FClear.6 mph81%30.09 "Hg10 mi
12:53 AM81 °FClear.6 mph79%30.10 "Hg10 mi
11:53 PM
Tue, Aug 23
82 °FClear.7 mph77%30.09 "Hg10 mi
10:53 PM82 °FClear.6 mph77%30.09 "Hg10 mi
9:53 PM83 °FClear.7 mph74%30.09 "Hg10 mi
8:53 PM82 °FMostly cloudy.3 mph74%30.10 "Hg10 mi
7:53 PM82 °FPassing clouds.No wind77%30.08 "Hg10 mi
6:53 PM88 °FThunderstorms. Mostly cloudy.10 mph63%30.06 "Hg10 mi
5:57 PM93 °FThunderstorms. Passing clouds.12 mph58%30.05 "Hg10 mi
4:53 PM93 °FScattered clouds.17 mph62%30.04 "Hg10 mi
3:53 PM95 °FPartly sunny.N/A46%30.06 "Hg10 mi
2:53 PM96 °FScattered clouds.9 mph46%30.09 "Hg10 mi
1:53 PM97 °FPartly sunny.6 mph46%30.12 "Hg10 mi
12:53 PM95 °FSunny.N/A47%30.14 "Hg10 mi
11:53 AM94 °FSunny.7 mph52%30.14 "Hg10 mi
10:53 AM91 °FSunny.7 mph56%30.15 "Hg10 mi
9:53 AM90 °FSunny.9 mph59%30.15 "Hg10 mi
8:53 AM86 °FSunny.8 mph70%30.14 "Hg10 mi
7:53 AM83 °FClear.3 mph77%30.14 "Hg10 mi
6:53 AM81 °FClear.5 mph82%30.12 "Hg10 mi
5:53 AM81 °FPassing clouds.3 mph79%30.11 "Hg10 mi
4:53 AM81 °FClear.3 mph82%30.10 "Hg10 mi
Weather by CustomWeather, © 2016

See weather overviewHow to use our weather pages